Location: Unspecified
(0.0000°N, 0.0000°E)
Time: 22:20:18
(UTC+00:00)

LES 2 - Pass Details

Date: 15 August 2024
Orbit: 2771 x 14804 km, 32.2° (Epoch: 05 September)

Event Time Altitude Azimuth Distance (km) Brightness Sun altitude
Exits shadow 04:13:06 18° 229° (SW) 11,755 ? -27.0°
Maximum altitude 05:50:44 88° 306° (NW) 14,806 ? -3.3°
Drops below altitude 10° 07:36:10 10° 50° (NE) 11,641 ? 22.2°
Sets 07:43:26 0° 53° (NE) 11,635 ? 24.0°
